Location: Godiavel Galaoual
(15.2485°N, 12.6604°W)
Time: 08:38:00
(UTC+00:00)

METEOR M2 - Pass Details

Date: 01 August 2021
Orbit: 818 x 827 km, 98.5° (Epoch: 27 September)

Event Time Altitude Azimuth Distance (km) Brightness Sun altitude
Rises 20:37:18 0° 190° (S) 3,354 ? -18.0°
Reaches altitude 10° 20:39:56 10° 201° (SSW) 2,422 ? -18.6°
Maximum altitude 20:44:32 29° 260° (W) 1,460 ? -19.6°
Drops below altitude 10° 20:49:10 10° 320° (NW) 2,424 ? -20.6°
Sets 20:51:48 0° 331° (NNW) 3,357 ? -21.2°
